MDT,Max TemperatureF,Mean TemperatureF,Min TemperatureF,Max Dew PointF,MeanDew PointF,Min DewpointF,Max Humidity, Mean Humidity, Min Humidity, Max Sea Level PressureIn, Mean Sea Level PressureIn, Min Sea Level PressureIn, Max VisibilityMiles, Mean VisibilityMiles, Min VisibilityMiles, Max Wind SpeedMPH, Mean Wind SpeedMPH, Max Gust SpeedMPH,PrecipitationIn, CloudCover, Events, WindDirDegrees
2013-10-1,75,58,40,33,28,23,62,35,16,30.31,30.23,30.14,10,10,10,24,7,31,0.00,0,,179
2013-10-2,73,55,37,33,24,9,70,35,8,30.27,30.18,30.09,10,10,10,16,6,23,0.00,0,,245
2013-10-3,71,58,46,25,22,16,37,24,13,30.11,29.98,29.85,10,10,10,21,7,34,0.00,1,,203
2013-10-4,56,44,33,31,18,12,82,41,24,30.32,30.12,29.85,10,10,4,29,16,41,0.00,1,,251
2013-10-5,59,43,27,17,10,-1,57,32,9,30.44,30.35,30.30,10,10,10,23,8,32,0.00,0,,319
2013-10-6,70,50,29,24,15,7,53,31,11,30.49,30.44,30.37,10,10,10,12,6,,0.00,0,,260
2013-10-7,75,55,35,26,21,14,60,32,10,30.47,30.34,30.23,10,10,10,18,7,26,0.00,0,,255
2013-10-8,70,56,42,26,21,17,42,25,14,30.24,30.11,29.98,10,10,10,23,11,30,0.00,0,,204
2013-10-9,66,53,40,28,22,11,57,32,13,30.13,30.08,30.02,10,10,10,20,7,28,0.00,0,,224
2013-10-10,61,50,40,37,31,24,79,52,25,30.11,29.93,29.80,10,10,7,30,9,45,0.00,5,,194
2013-10-11,56,48,39,30,26,24,59,46,31,30.23,30.04,29.90,10,10,10,28,17,43,0.00,2,,233
2013-10-12,57,43,29,33,27,22,79,56,29,30.32,30.26,30.19,10,10,10,15,4,25,0.00,0,,159
2013-10-13,66,50,35,39,32,26,78,48,22,30.30,30.21,30.10,10,10,10,20,6,31,0.00,3,,190
2013-10-14,52,44,36,38,27,20,87,49,28,30.25,30.12,30.02,10,10,5,32,14,43,0.00,3,,238
2013-10-15,42,35,28,31,27,22,92,76,62,30.30,30.26,30.22,10,10,3,21,6,28,0.00,5,,127
2013-10-16,52,39,26,30,24,17,96,63,28,30.26,30.20,30.14,10,9,1,25,7,33,0.00,4,,261
2013-10-17,56,43,30,23,14,3,55,35,12,30.24,30.15,30.07,10,10,10,22,10,33,0.00,0,,271
2013-10-18,50,40,29,28,16,1,80,45,13,30.29,30.19,30.09,10,10,10,16,5,29,0.00,2,,299
2013-10-19,59,43,27,16,12,7,51,31,17,30.30,30.23,30.15,10,10,10,20,7,28,0.00,0,,290
2013-10-20,59,49,39,32,19,13,76,34,17,30.21,30.11,30.01,10,10,10,21,11,29,0.00,2,,209
2013-10-21,59,45,31,33,22,6,89,50,13,30.37,30.27,30.22,10,10,10,10,4,22,0.00,2,,305
2013-10-22,65,47,29,23,19,16,64,39,15,30.43,30.36,30.29,10,10,10,12,5,,0.00,0,,243
2013-10-23,68,50,31,22,18,9,62,35,10,30.40,30.34,30.26,10,10,10,12,5,18,0.00,0,,250
2013-10-24,67,50,32,32,22,14,70,43,13,30.43,30.37,30.27,10,10,10,16,5,24,0.00,0,,197
2013-10-25,63,48,33,41,30,23,87,59,24,30.42,30.38,30.27,10,10,10,13,5,21,0.00,4,,280
2013-10-26,63,48,34,38,29,16,90,57,17,30.52,30.43,30.37,10,10,10,9,4,,0.00,2,,208
2013-10-27,62,48,35,28,23,13,69,42,15,30.39,30.21,30.06,10,10,10,25,7,32,0.00,1,,274
2013-10-28,61,48,35,32,25,12,81,47,15,30.09,30.04,29.96,10,10,10,20,8,31,0.00,1,,182
2013-10-29,58,46,35,36,23,11,93,42,15,30.09,30.02,29.95,10,10,3,24,8,37,0.00,3,,186
2013-10-30,50,41,31,34,21,16,92,52,26,30.05,29.99,29.94,10,10,10,17,9,24,0.00,2,,233
2013-10-31,46,37,28,20,17,15,64,46,29,30.13,30.05,29.98,10,10,10,29,11,41,0.00,0,,264